COSMOS 2551 (49127 NORAD) Tracking and Keplerian Element Data

This shows tracking and keplerian element data for the satellite.

Feedback or suggestion? Click here.




ElementValue
Catalog49127
NameCOSMOS 2551
Epoch Orbit564
Epoch Day288.13822319
Epoch Year2021
RAAN15.108
Inclination96.3478
Eccentricity0.0008121
Argument of Perigee227.3303
Mean Anonmoly132.7226
Mean Motion16.14919959
Decay Rate0.01089993
L11 49127U 21082A 21288.13822319 .01089993 81000-3 85179-3 0 9990
L22 49127 96.3478 15.1080 0008121 227.3303 132.7226 16.14919959 5641

Live tracking and technical data element details for COSMOS 2551 (NORAD 49127). COSMOS 2551 can be tracked NOW for your location showing map with azimuth and elevation plus other details from your city location.

Track the satellite on the map from your city or location and see movement details for azimuth, elevation, latitude, longitude, range, height, and movement on the map or in text.







IsCatalogInMostPopularTable: catalog: 49127, numindb: 5
Update: records affected: 1



GetName: 49127 COSMOS 2551

Hit Count: updated at: Tue, 19 Oct 2021 08:35:33 GMT